User: anonymous   Login
Location: La Vergne
(36.0160°N, 86.5820°W)
Time: 08:45:59
(UTC-05:00)
Language:

Cosmos 1703 Rocket - Orbit

View from above orbital plane
View from above orbital plane
View from above satellite
View from above satellite

Ground track
Ground track

The orbit data is extracted from the following two-line orbital elements,

1 16263U 85108B   17146.52860049 +.00000083 +00000-0 +71802-5 0  9997
2 16263 082.5020 134.6430 0021521 061.7711 077.5263 14.82984821701175
Epoch (UTC): 26 May 2017 12:41:11
Eccentricity: 0.0021521
inclination: 82.5020°
perigee height: 605 km
apogee height: 635 km
right ascension of ascending node: 134.6430°
argument of perigee: 61.7711°
revolutions per day: 14.82984821
mean anomaly at epoch: 77.5263°
orbit number at epoch: 70117

The dashed part of the orbit path shows where the satellite is in the earth's shadow,  

DLR